Date,TemperatureHighF,TemperatureAvgF,TemperatureLowF,DewpointHighF,DewpointAvgF,DewpointLowF,HumidityHigh,HumidityAvg,HumidityLow,PressureMaxIn,PressureMinIn,WindSpeedMaxMPH,WindSpeedAvgMPH,GustSpeedMaxMPH,PrecipitationSumIn
2013-2-1,10.0,1.0,-10.0,6.0,-7.2,-16.0,83,68,51,0.00,40.00,18,8,26,0.01
2013-2-2,22.0,12.3,5.0,20.0,6.1,0.0,91,76,53,0.00,40.00,23,7,29,0.06
2013-2-3,22.0,15.8,8.0,20.0,9.8,3.0,90,76,66,0.00,40.00,27,12,37,0.01
2013-2-4,20.0,15.6,10.0,16.0,9.0,5.0,87,75,53,0.00,40.00,14,7,19,0.00
2013-2-5,35.0,23.9,10.0,29.0,20.1,8.0,93,85,71,0.00,40.00,24,10,30,0.03
2013-2-6,36.0,25.2,6.0,33.0,21.4,4.0,93,85,71,0.00,40.00,18,6,26,0.00
2013-2-7,35.0,27.8,22.0,32.0,26.5,19.0,97,94,85,0.00,40.00,12,6,19,0.00
2013-2-8,28.0,25.3,22.0,22.0,20.1,19.0,88,80,71,0.00,40.00,16,7,22,0.00
2013-2-9,31.0,28.0,26.0,28.0,25.5,22.0,93,90,84,0.00,40.00,23,15,32,0.00
2013-2-10,38.0,33.0,29.0,37.0,32.3,27.0,98,97,91,0.00,40.00,24,11,31,0.95
2013-2-11,29.0,24.2,20.0,28.0,19.8,14.0,97,83,73,0.00,40.00,29,22,42,0.07
2013-2-12,37.0,27.2,18.0,27.0,20.6,14.0,93,76,57,0.00,40.00,13,6,19,0.00
2013-2-13,43.0,31.3,19.0,35.0,26.8,18.0,95,84,58,0.00,40.00,13,4,19,0.03
2013-2-14,36.0,30.2,18.0,32.0,24.7,10.0,93,80,60,0.00,40.00,24,15,32,0.07
2013-2-15,21.0,15.0,10.0,10.0,7.1,4.0,84,71,57,0.00,40.00,19,14,24,0.01
2013-2-16,29.0,18.2,11.0,15.0,11.5,8.0,88,75,53,0.00,40.00,18,6,23,0.06
2013-2-17,35.0,25.1,15.0,24.0,18.7,13.0,90,77,60,0.00,40.00,19,11,27,0.00
2013-2-18,35.0,23.3,5.0,31.0,18.3,0.0,93,81,70,0.00,40.00,34,17,43,0.06
2013-2-19,8.0,1.5,-4.0,1.0,-4.5,-9.0,80,75,70,0.00,40.00,32,23,40,0.01
2013-2-20,21.0,7.0,-6.0,9.0,-0.5,-10.0,83,71,46,0.00,40.00,12,6,17,0.00
2013-2-21,24.0,16.2,6.0,16.0,9.3,2.0,92,74,55,0.00,40.00,18,9,26,0.17
2013-2-22,34.0,21.5,12.0,22.0,18.4,11.0,96,87,53,0.00,40.00,14,9,19,1.04
2013-2-23,29.0,16.0,-2.0,15.0,9.4,-5.0,95,76,48,0.00,40.00,12,5,15,0.01
2013-2-24,31.0,16.2,-3.0,23.0,11.2,-6.0,90,81,63,0.00,40.00,7,3,12,0.00
2013-2-25,36.0,28.6,17.0,29.0,24.9,16.0,96,86,71,0.00,40.00,7,3,9,0.00
2013-2-26,33.0,27.2,20.0,27.0,23.6,20.0,97,86,74,0.00,40.00,17,9,26,0.00
2013-2-27,34.0,28.7,23.0,26.0,23.9,20.0,89,82,68,0.00,40.00,16,10,26,0.00
2013-2-28,30.0,25.5,19.0,24.0,21.4,17.0,91,84,72,0.00,40.00,17,8,21,0.13